COSMOS 2327

导读

COSMOS 2327是独联体(CIS)于1996年1月16日发射的军用卫星,隶属于苏/俄经典的"宇宙"(Cosmos)卫星系列。该系列自1962年起延续命名传统,涵盖军事侦察、技术试验等多类保密任务,以模糊编号隐藏卫星真实用途。作为冷战后独联体初期航天活动产物,它延续了苏联航天体系,服务于战略空间监测与国防体系建设,是俄军事航天网络重要组成部分,具体任务参数因保密未公开,目前已完成服役使命。

基本信息
目录编号:
23773
目录名称:
COSMOS 2327
国际标识:
1996-004A
轨道中心:
EARTH
卫星名称:
COSMOS 2327
卫星全名:
--
卫星状态:
在轨 (已飞行11105 天)
发射日期:
1996-01-16 UTC
国别 :
俄罗斯(独联体) (CIS)
星等 :
--
轨道信息
数据来源 国际轨道数据
星历时间: 2026-06-12T14:30:17+0800
13小时前
查看轨道信息
半长轴: 7360.645km
偏心率: 0.0046388
轨道倾角: 82.983°
近地点辐角 272.625°
升交点赤经 128.435°
平近点角 200.285°
近地点: 948.363km
远地点: 1016.653km
周期: 104.745分钟
每日圈数: 13.747668
详细信息
使用方式:
暂无
2D轨道图
3D轨道图
轨道高度分析图
轨道倾角分析图
轨道综合分析图
查看轨道综合分析图